#timestamp,LO_Frequency,Hit,StdDev 
1683241215.9,286046999.7,N
1683241235.7,286047004.4,Y
1683241255.6,286047002.2,P
1683241275.4,286047002.5,P
1683241295.2,286047002.0,P
1683241315.1,286047001.9,Y
1683241316.0,286047001.9,P
1683241335.8,286046998.2,P
1683241355.6,286046999.3,N
1683241375.5,286046999.0,N
1683241395.3,286046999.0,N
1683241415.2,286046998.5,N
1683241435.9,286047000.5,N
1683241455.7,286047000.4,N
1683241475.6,286047000.4,N
1683241495.4,286047000.3,N
1683241515.2,286047001.0,N
1683241535.1,286047000.8,N
1683241536.0,286047000.8,N
1683241555.8,286047000.6,N
1683241575.7,286046998.6,N
1683241595.5,286047000.6,N
1683241615.3,286047000.9,N
1683241635.2,286047000.8,N
1683241655.0,286046998.4,N
1683241655.9,286046998.4,N
1683241675.7,286046997.2,N
1683241695.6,286046999.4,N
1683241715.4,286046998.6,N
1683241735.3,286047001.2,N
1683241755.1,286046998.3,N
1683241756.0,286046998.3,N
1683241775.8,286046999.4,N
1683241795.7,286046999.6,N
1683241815.5,286046998.7,N
1683241835.3,286046998.1,N
1683241855.2,286046998.2,N
1683241875.0,286046999.0,N
1683241875.9,286046999.0,N
1683241895.8,286046998.1,N
1683241915.6,286046998.6,N
1683241935.4,286046998.1,N
1683241955.3,286047001.2,N
1683241975.1,286046998.5,N
1683241995.8,286047000.6,N
1683242015.7,286047001.0,N
1683242035.5,286047001.2,N
1683242055.4,286047001.2,N
1683242075.2,286047001.0,N
1683242095.0,286046998.3,N
1683242095.9,286046998.3,N
1683242115.8,286047000.7,N
1683242135.6,286047000.4,N
1683242155.4,286047000.4,N
1683242175.3,286047000.6,N
1683242195.1,286047000.8,N
1683242215.9,286047000.3,N
1683242235.7,286047000.6,N
1683242255.5,286046998.2,N
1683242275.4,286047000.8,N
1683242295.2,286047001.2,N
1683242315.0,286047000.0,N
1683242315.9,286047000.0,N
1683242335.8,286046998.1,N
1683242355.6,286046998.1,N
1683242375.5,286047000.9,N
1683242395.3,286047001.2,N
1683242415.1,286046998.5,N
1683242435.9,286047000.7,N
1683242455.7,286047001.2,N
1683242475.5,286046998.3,N
1683242495.4,286046998.8,N
1683242515.2,286047000.8,N
1683242535.0,286046998.4,N
1683242536.0,286046998.4,N
1683242555.8,286046999.4,N
1683242575.6,286046998.4,N
1683242595.5,286047001.2,N
1683242615.3,286046998.9,N
1683242635.1,286046998.9,N
1683242655.9,286046999.3,N
1683242675.7,286046998.3,N
1683242695.6,286046999.2,N
1683242715.4,286046998.1,N
1683242735.2,286046998.3,N
1683242755.1,286046999.2,N
1683242756.0,286046999.2,N
1683242775.8,286046999.6,N
1683242795.7,286046996.6,Y
1683242815.5,286046998.6,P
1683242835.3,286047000.0,N
1683242855.2,286047002.0,P
1683242875.9,286047002.4,N
1683242895.7,286047000.2,N
1683242915.6,286047002.0,N
1683242935.4,286047002.5,N
1683242955.2,286047002.1,N
1683242975.1,286047001.5,N
1683242976.0,286047001.5,N
1683242995.8,286047001.8,N
1683243015.7,286047001.6,N
1683243035.5,286047001.6,N
1683243055.3,286047001.6,N
1683243075.2,286047002.3,N
1683243095.0,286047000.2,N
1683243095.9,286047000.2,N
1683243115.7,286046999.9,N
1683243135.6,286047000.4,N
1683243155.4,286046998.2,N
1683243175.3,286046998.1,N
1683243195.1,286046999.0,N
1683243196.0,286046999.0,N
1683243215.8,286046998.1,N
1683243235.7,286047001.0,N
1683243255.5,286047000.9,N
1683243275.3,286047000.8,N
1683243295.2,286046998.1,N
1683243315.0,286046998.7,N
1683243315.9,286046998.7,N
1683243335.8,286046999.0,N
1683243355.6,286046998.5,N
1683243375.4,286046999.4,N
1683243395.3,286046997.7,N
1683243415.1,286046999.4,N
1683243435.8,286046999.6,N
1683243455.7,286046998.9,N
1683243475.5,286046999.3,N
1683243495.4,286046996.6,N
1683243515.2,286046999.3,N
1683243535.0,286046999.0,N
1683243535.9,286046999.0,N
1683243555.8,286047000.9,N
1683243575.6,286046998.5,N
1683243595.4,286046999.3,N
1683243615.3,286046998.4,N
1683243635.1,286046996.9,Y
1683243655.9,286046998.6,P
1683243675.7,286047000.4,N
1683243695.5,286046999.8,N
1683243715.4,286047002.7,Y
1683243735.2,286047000.0,P
1683243755.0,286047000.0,N
1683243755.9,286047000.0,N
1683243775.8,286047000.3,N
1683243795.6,286047000.6,N
1683243815.5,286047000.8,N
1683243835.3,286046998.5,Y
1683243855.1,286046999.0,P
1683243875.9,286046996.5,P
1683243895.7,286046999.5,N
1683243915.5,286047000.8,N
1683243935.4,286046999.0,N
1683243955.2,286046999.1,N
1683243975.1,286046998.7,N
1683243976.0,286046998.7,N
1683243995.8,286046998.6,N
1683244015.6,286046996.6,Y
1683244035.5,286046998.6,P
1683244055.3,286046998.8,P
1683244075.1,286046998.5,P
1683244095.9,286047000.3,N
1683244115.7,286047000.3,N
1683244135.6,286046999.4,N
1683244155.4,286046998.6,N
1683244175.2,286046998.2,N
1683244195.1,286046999.0,N
1683244196.0,286046999.0,N
1683244215.8,286046999.4,N
1683244235.7,286046998.3,N
1683244255.5,286046998.5,N
1683244275.3,286046998.5,N
1683244295.2,286047000.6,N
1683244315.0,286046999.9,N
1683244315.9,286046999.9,N
1683244335.7,286047000.4,N
1683244355.6,286046999.7,N
1683244375.4,286047002.7,Y
1683244395.3,286047003.6,P
1683244415.1,286047003.9,N
1683244416.0,286047003.9,N
1683244435.8,286047003.8,N
1683244455.7,286047004.4,N
1683244475.5,286047003.8,N
1683244495.3,286047004.0,N
1683244515.2,286047003.6,N
1683244535.0,286047004.3,N
1683244535.9,286047004.3,N
1683244555.8,286047001.4,N
1683244575.6,286047004.1,N
1683244595.4,286047002.6,N
1683244615.3,286047001.7,N
1683244635.1,286047001.9,N
1683244655.9,286047004.0,N
1683244675.7,286047003.7,N
1683244695.5,286047003.0,N
1683244715.4,286047003.4,N
1683244735.2,286047006.0,Y
1683244755.0,286047002.3,P
1683244755.9,286047002.3,P
1683244775.8,286046999.9,N
1683244795.6,286047011.9,Y
